星链-30520 (STARLINK-30520 )

导读 | 星芒AI

STARLINK-30520 是 SpaceX Starlink 卫星互联网项目中的第 30520 颗卫星。该卫星属于星链计划的组网卫星,旨在通过低轨卫星群提供全球高速互联网服务。它采用先进的推进和通信技术,具备自主避障能力,有助于提升网络覆盖和连接稳定性。该卫星的发射和运行进一步扩展了 Starlink 网络的容量与性能,支持更多用户接入高速互联网,尤其在偏远和网络基础设施薄弱地区发挥重要作用。

基本信息
目录编号:
58010
目录名称:
STARLINK-30520
国际标识:
2023-153V
轨道中心:
EARTH
卫星名称:
星链-30520
卫星全名:
星链-30520 (STARLINK-30520 )
卫星状态:
在轨 (已飞行756 天)
发射日期:
2023-10-05 UTC
国别 :
美国 (US)
星等 :
--
轨道信息
数据来源 国际轨道数据
星历时间: 2025-10-30T08:30:20+0800
22小时前
查看轨道信息
半长轴: 6937.199km
偏心率: 0.0000602
轨道倾角: 42.996°
近地点辐角 20.454°
升交点赤经 59.332°
平近点角 339.632°
近地点: 558.646km
远地点: 559.482km
周期: 95.838分钟
每日圈数: 15.025418
详细信息
固有亮度:
5
最大亮度:
0.3
卫星平台:
Starlink v2.0 mini
覆盖范围:
全球
运营商:
太空探索技术公司
运营商所在国:
美国
制造商(研发单位):
太空探索技术公司
制造商所在国:
美国
使用方式:
暂无
卫星简介
星链(Starlink)计划是由太空探索技术公司(SpaceX)提出的一个巨型低轨卫星互联网星座项目,计划在2019年至2024年间在太空搭建由约1.2万颗卫星组成的“星链”网络,其中1584颗将部署在地球上空550千米处的近地轨道,并从2020年开始工作。该卫星仍在工作。
2D轨道图
3D轨道图
轨道高度分析图
轨道倾角分析图
轨道综合分析图
查看轨道综合分析图